Private Wetterstation Wechselburg
Wetterdaten: Freitag, 29.04.2011
Datum Zeit Temp. +2m Bodentemp. Temp.+5cm Temp. Wind Windchill X Diff Temp. Feuchte +2m Feuchte +5cm Sonnenschein Luftdruck Regen Wind Richtung Richtung Sonnenschein UV Taupunkt Windchill Windben
29.04.2011 00:00 13,1 C 16,4 C 12,3 C 12,3 C 10,7 C 0,0 C 76 % 81 % 0 % 1013,1 hPa 0,0 l/m 0,0 km/h (0 Bft) NW 315 0 min 0,0 UV-I 9,0 C 10,7 C 0,0 km/h (0 Bft)
29.04.2011 00:10 13,0 C 16,4 C 12,3 C 12,2 C 10,6 C 0,0 C 76 % 81 % 0 % 1013,1 hPa 0,0 l/m 0,0 km/h (0 Bft) N 0 0 min 0,0 UV-I 8,9 C 10,6 C 0,0 km/h (0 Bft)
29.04.2011 00:15 13,0 C 16,4 C 12,3 C 12,0 C 10,1 C 0,0 C 76 % 81 % 0 % 1013,1 hPa 0,0 l/m 0,2 km/h (0 Bft) O-NO 67 0 min 0,0 UV-I 8,9 C 10,1 C 0,0 km/h (0 Bft)
29.04.2011 00:20 12,8 C 16,4 C 12,3 C 11,9 C 10,1 C 0,0 C 77 % 81 % 0 % 1013,1 hPa 0,0 l/m 0,0 km/h (0 Bft) O-NO 67 0 min 0,0 UV-I 8,9 C 10,1 C 0,0 km/h (0 Bft)
29.04.2011 00:25 12,7 C 16,4 C 11,2 C 11,8 C 9,9 C 0,0 C 77 % 83 % 0 % 1013,1 hPa 0,0 l/m 0,2 km/h (0 Bft) NO 45 0 min 0,0 UV-I 8,8 C 9,9 C 0,0 km/h (0 Bft)
29.04.2011 00:30 12,7 C 16,3 C 11,2 C 11,8 C 9,9 C 0,0 C 78 % 83 % 0 % 1013,1 hPa 0,0 l/m 0,2 km/h (0 Bft) NW 315 0 min 0,0 UV-I 9,0 C 9,9 C 0,0 km/h (0 Bft)
29.04.2011 00:35 12,7 C 16,3 C 11,1 C 11,7 C 9,7 C 0,0 C 78 % 84 % 0 % 1013,7 hPa 0,0 l/m 0,0 km/h (0 Bft) NW 315 0 min 0,0 UV-I 9,0 C 9,7 C 0,0 km/h (0 Bft)
29.04.2011 00:40 12,7 C 16,3 C 11,1 C 11,7 C 9,6 C 0,0 C 78 % 84 % 0 % 1013,7 hPa 0,0 l/m 0,0 km/h (0 Bft) NW 315 0 min 0,0 UV-I 9,0 C 9,6 C 0,0 km/h (0 Bft)
29.04.2011 00:45 12,4 C 16,3 C 11,1 C 11,4 C 9,5 C 0,0 C 78 % 84 % 0 % 1013,7 hPa 0,0 l/m 0,0 km/h (0 Bft) N-NW 337 0 min 0,0 UV-I 8,7 C 9,5 C 0,0 km/h (0 Bft)
29.04.2011 00:50 12,5 C 16,3 C 10,9 C 11,5 C 9,4 C 0,0 C 78 % 84 % 0 % 1013,7 hPa 0,0 l/m 0,0 km/h (0 Bft) N-NW 337 0 min 0,0 UV-I 8,8 C 9,4 C 0,0 km/h (0 Bft)
29.04.2011 00:55 12,1 C 16,3 C 10,8 C 11,1 C 9,2 C 0,0 C 78 % 84 % 0 % 1013,2 hPa 0,0 l/m 0,0 km/h (0 Bft) N-NW 337 0 min 0,0 UV-I 8,4 C 9,2 C 0,0 km/h (0 Bft)
29.04.2011 01:00 12,1 C 16,4 C 10,6 C 11,1 C 9,2 C 0,0 C 79 % 84 % 0 % 1013,2 hPa 0,0 l/m 0,0 km/h (0 Bft) N-NW 337 0 min 0,0 UV-I 8,6 C 9,2 C 0,0 km/h (0 Bft)
29.04.2011 01:10 11,9 C 16,3 C 10,4 C 11,0 C 9,2 C 0,0 C 80 % 85 % 0 % 1013,2 hPa 0,0 l/m 0,0 km/h (0 Bft) N 0 0 min 0,0 UV-I 8,6 C 9,2 C 0,0 km/h (0 Bft)
29.04.2011 01:15 11,9 C 16,3 C 10,4 C 10,9 C 8,9 C 0,0 C 79 % 85 % 0 % 1012,8 hPa 0,0 l/m 0,0 km/h (0 Bft) NO 45 0 min 0,0 UV-I 8,4 C 8,9 C 0,0 km/h (0 Bft)
29.04.2011 01:20 11,7 C 16,2 C 10,4 C 10,7 C 8,8 C 0,0 C 80 % 85 % 0 % 1012,8 hPa 0,0 l/m 0,0 km/h (0 Bft) N-NO 22 0 min 0,0 UV-I 8,4 C 8,8 C 0,0 km/h (0 Bft)
29.04.2011 01:25 11,6 C 16,3 C 10,2 C 10,6 C 8,7 C 0,0 C 79 % 85 % 0 % 1012,8 hPa 0,0 l/m 0,0 km/h (0 Bft) N-NO 22 0 min 0,0 UV-I 8,1 C 8,7 C 0,0 km/h (0 Bft)
29.04.2011 01:30 11,5 C 16,3 C 10,3 C 10,5 C 8,6 C 0,0 C 80 % 85 % 0 % 1012,8 hPa 0,0 l/m 0,0 km/h (0 Bft) NO 45 0 min 0,0 UV-I 8,2 C 8,6 C 0,0 km/h (0 Bft)
29.04.2011 01:35 11,6 C 16,2 C 10,1 C 10,5 C 8,4 C 0,0 C 80 % 85 % 0 % 1012,7 hPa 0,0 l/m 0,0 km/h (0 Bft) NO 45 0 min 0,0 UV-I 8,3 C 8,4 C 0,0 km/h (0 Bft)
29.04.2011 01:40 11,6 C 16,2 C 10,1 C 10,5 C 8,4 C 0,0 C 80 % 85 % 0 % 1012,7 hPa 0,0 l/m 0,0 km/h (0 Bft) NO 45 0 min 0,0 UV-I 8,3 C 8,4 C 0,0 km/h (0 Bft)
29.04.2011 01:45 11,5 C 16,1 C 10,0 C 10,5 C 8,4 C 0,0 C 80 % 86 % 0 % 1012,7 hPa 0,0 l/m 0,0 km/h (0 Bft) N 360 0 min 0,0 UV-I 8,2 C 8,4 C 0,0 km/h (0 Bft)
29.04.2011 01:50 11,5 C 16,1 C 10,1 C 10,5 C 8,5 C 0,0 C 80 % 86 % 0 % 1012,7 hPa 0,0 l/m 0,0 km/h (0 Bft) N 360 0 min 0,0 UV-I 8,2 C 8,5 C 0,0 km/h (0 Bft)
29.04.2011 01:55 11,6 C 16,1 C 10,1 C 10,6 C 8,6 C 0,0 C 80 % 87 % 0 % 1012,9 hPa 0,0 l/m 0,0 km/h (0 Bft) W-SW 247 0 min 0,0 UV-I 8,3 C 8,6 C 0,0 km/h (0 Bft)
29.04.2011 02:00 11,5 C 16,1 C 10,0 C 10,5 C 8,6 C 0,0 C 80 % 87 % 0 % 1012,9 hPa 0,0 l/m 0,0 km/h (0 Bft) W-SW 247 0 min 0,0 UV-I 8,2 C 8,6 C 0,0 km/h (0 Bft)
29.04.2011 02:10 11,2 C 16,1 C 9,9 C 10,4 C 8,9 C 0,0 C 81 % 87 % 0 % 1012,9 hPa 0,0 l/m 0,2 km/h (0 Bft) N 0 0 min 0,0 UV-I 8,1 C 8,9 C 1,8 km/h (1 Bft)
29.04.2011 02:15 11,3 C 16,1 C 10,0 C 10,5 C 8,9 C 0,0 C 82 % 87 % 0 % 1012,8 hPa 0,0 l/m 0,0 km/h (0 Bft) NO 45 0 min 0,0 UV-I 8,3 C 8,9 C 0,0 km/h (0 Bft)
29.04.2011 02:20 11,4 C 16,0 C 9,9 C 10,6 C 8,9 C 0,0 C 82 % 87 % 0 % 1012,8 hPa 0,0 l/m 0,0 km/h (0 Bft) SW 225 0 min 0,0 UV-I 8,4 C 8,9 C 0,0 km/h (0 Bft)
29.04.2011 02:25 11,3 C 16,1 C 9,9 C 10,4 C 8,7 C 0,0 C 81 % 87 % 0 % 1012,8 hPa 0,0 l/m 0,0 km/h (0 Bft) S 180 0 min 0,0 UV-I 8,2 C 8,7 C 0,0 km/h (0 Bft)
29.04.2011 02:30 11,2 C 16,0 C 9,9 C 10,3 C 8,6 C 0,0 C 81 % 87 % 0 % 1012,8 hPa 0,0 l/m 0,0 km/h (0 Bft) W-SW 247 0 min 0,0 UV-I 8,1 C 8,6 C 0,0 km/h (0 Bft)
29.04.2011 02:35 11,1 C 16,0 C 9,8 C 10,2 C 8,4 C 0,0 C 80 % 87 % 0 % 1012,8 hPa 0,0 l/m 0,0 km/h (0 Bft) W-SW 247 0 min 0,0 UV-I 7,8 C 8,4 C 0,0 km/h (0 Bft)
29.04.2011 02:40 11,1 C 16,0 C 9,7 C 10,2 C 8,4 C 0,0 C 81 % 87 % 0 % 1012,8 hPa 0,0 l/m 0,0 km/h (0 Bft) W-SW 247 0 min 0,0 UV-I 8,0 C 8,4 C 0,0 km/h (0 Bft)
29.04.2011 02:45 11,1 C 16,0 C 9,6 C 10,1 C 8,2 C 0,0 C 81 % 87 % 0 % 1012,8 hPa 0,0 l/m 0,3 km/h (0 Bft) SW 225 0 min 0,0 UV-I 8,0 C 8,2 C 2,3 km/h (1 Bft)
29.04.2011 02:50 11,1 C 16,0 C 9,6 C 10,1 C 8,2 C 0,0 C 81 % 87 % 0 % 1012,8 hPa 0,0 l/m 0,3 km/h (0 Bft) W 270 0 min 0,0 UV-I 8,0 C 8,2 C 0,0 km/h (0 Bft)
29.04.2011 02:55 10,7 C 16,1 C 9,5 C 9,9 C 8,2 C 0,0 C 81 % 88 % 0 % 1012,8 hPa 0,0 l/m 0,2 km/h (0 Bft) O-NO 67 0 min 0,0 UV-I 7,6 C 8,2 C 0,0 km/h (0 Bft)
29.04.2011 03:00 10,9 C 16,0 C 9,5 C 10,0 C 8,1 C 0,0 C 82 % 88 % 0 % 1012,8 hPa 0,0 l/m 0,2 km/h (0 Bft) N-NO 22 0 min 0,0 UV-I 7,9 C 8,1 C 0,0 km/h (0 Bft)
29.04.2011 03:10 10,8 C 15,9 C 9,5 C 9,9 C 8,1 C 0,0 C 82 % 88 % 0 % 1012,8 hPa 0,0 l/m 0,0 km/h (0 Bft) N 0 0 min 0,0 UV-I 7,9 C 8,1 C 0,0 km/h (0 Bft)
29.04.2011 03:15 10,7 C 16,0 C 9,3 C 9,8 C 8,1 C 0,0 C 81 % 87 % 0 % 1012,4 hPa 0,0 l/m 0,0 km/h (0 Bft) N 360 0 min 0,0 UV-I 7,6 C 8,1 C 0,0 km/h (0 Bft)
29.04.2011 03:20 10,7 C 16,0 C 9,3 C 9,8 C 8,1 C 0,0 C 82 % 87 % 0 % 1012,4 hPa 0,0 l/m 0,0 km/h (0 Bft) N 360 0 min 0,0 UV-I 7,8 C 8,1 C 0,0 km/h (0 Bft)
29.04.2011 03:25 10,4 C 16,1 C 9,3 C 9,6 C 8,1 C 0,0 C 82 % 87 % 0 % 1012,4 hPa 0,0 l/m 0,0 km/h (0 Bft) N-NO 22 0 min 0,0 UV-I 7,5 C 8,1 C 0,0 km/h (0 Bft)
29.04.2011 03:30 10,5 C 16,1 C 9,2 C 9,7 C 8,1 C 0,0 C 83 % 88 % 0 % 1012,4 hPa 0,0 l/m 0,0 km/h (0 Bft) N-NO 22 0 min 0,0 UV-I 7,7 C 8,1 C 0,0 km/h (0 Bft)
29.04.2011 03:35 10,4 C 16,0 C 9,2 C 9,7 C 8,2 C 0,0 C 83 % 88 % 0 % 1012,3 hPa 0,0 l/m 0,0 km/h (0 Bft) N-NO 22 0 min 0,0 UV-I 7,6 C 8,2 C 0,0 km/h (0 Bft)
29.04.2011 03:40 10,5 C 16,0 C 9,2 C 9,7 C 8,2 C 0,0 C 83 % 88 % 0 % 1012,3 hPa 0,0 l/m 0,0 km/h (0 Bft) N-NO 22 0 min 0,0 UV-I 7,7 C 8,2 C 0,0 km/h (0 Bft)
29.04.2011 03:45 10,4 C 16,0 C 9,3 C 9,7 C 8,3 C 0,0 C 84 % 88 % 0 % 1012,3 hPa 0,0 l/m 0,0 km/h (0 Bft) N-NO 22 0 min 0,0 UV-I 7,8 C 8,3 C 0,0 km/h (0 Bft)
29.04.2011 03:50 10,5 C 15,9 C 9,3 C 9,8 C 8,3 C 0,0 C 84 % 88 % 0 % 1012,3 hPa 0,0 l/m 0,0 km/h (0 Bft) N-NO 22 0 min 0,0 UV-I 7,9 C 8,3 C 0,0 km/h (0 Bft)
29.04.2011 03:55 10,6 C 15,9 C 9,3 C 9,9 C 8,4 C 0,0 C 83 % 88 % 0 % 1012,3 hPa 0,0 l/m 0,0 km/h (0 Bft) NW 315 0 min 0,0 UV-I 7,8 C 8,4 C 0,0 km/h (0 Bft)
29.04.2011 04:00 10,6 C 15,8 C 9,3 C 9,9 C 8,4 C 0,0 C 83 % 88 % 0 % 1012,3 hPa 0,0 l/m 0,0 km/h (0 Bft) NO 45 0 min 0,0 UV-I 7,8 C 8,4 C 0,0 km/h (0 Bft)
29.04.2011 04:10 10,6 C 15,7 C 9,5 C 9,9 C 8,4 C 0,0 C 83 % 88 % 0 % 1012,3 hPa 0,0 l/m 0,0 km/h (0 Bft) N 0 0 min 0,0 UV-I 7,8 C 8,4 C 0,0 km/h (0 Bft)
29.04.2011 04:15 10,6 C 15,7 C 9,5 C 9,9 C 8,4 C 0,0 C 83 % 88 % 0 % 1012,2 hPa 0,0 l/m 0,2 km/h (0 Bft) O-NO 67 0 min 0,0 UV-I 7,8 C 8,4 C 2,9 km/h (1 Bft)
29.04.2011 04:20 10,6 C 15,7 C 9,4 C 9,9 C 8,5 C 0,0 C 82 % 88 % 0 % 1012,2 hPa 0,0 l/m 0,3 km/h (0 Bft) N-NW 337 0 min 0,0 UV-I 7,7 C 8,5 C 2,9 km/h (1 Bft)
29.04.2011 04:25 10,5 C 15,6 C 9,5 C 9,9 C 8,6 C 0,0 C 82 % 88 % 0 % 1012,2 hPa 0,0 l/m 0,5 km/h (0 Bft) O-NO 67 0 min 0,0 UV-I 7,6 C 8,6 C 3,1 km/h (1 Bft)
29.04.2011 04:30 10,4 C 15,6 C 9,5 C 9,7 C 8,4 C 0,0 C 82 % 88 % 0 % 1012,2 hPa 0,0 l/m 0,3 km/h (0 Bft) O-NO 67 0 min 0,0 UV-I 7,5 C 8,4 C 0,0 km/h (0 Bft)
29.04.2011 04:35 10,4 C 15,7 C 9,4 C 9,7 C 8,4 C 0,0 C 82 % 87 % 0 % 1012,2 hPa 0,0 l/m 0,0 km/h (0 Bft) O-NO 67 0 min 0,0 UV-I 7,5 C 8,4 C 0,0 km/h (0 Bft)
29.04.2011 04:40 10,4 C 15,7 C 9,4 C 9,7 C 8,4 C 0,0 C 82 % 88 % 0 % 1012,2 hPa 0,0 l/m 0,3 km/h (0 Bft) O-NO 67 0 min 0,0 UV-I 7,5 C 8,4 C 0,0 km/h (0 Bft)
29.04.2011 04:45 10,4 C 15,6 C 9,4 C 9,7 C 8,4 C 0,0 C 83 % 88 % 0 % 1012,2 hPa 0,0 l/m 0,6 km/h (0 Bft) SW 225 0 min 0,0 UV-I 7,6 C 8,4 C 3,2 km/h (1 Bft)
29.04.2011 04:50 10,4 C 15,7 C 9,2 C 9,7 C 8,3 C 0,0 C 83 % 87 % 0 % 1012,2 hPa 0,0 l/m 0,8 km/h (0 Bft) S 180 0 min 0,0 UV-I 7,6 C 8,3 C 0,0 km/h (0 Bft)
29.04.2011 04:55 10,5 C 15,7 C 9,1 C 9,7 C 8,2 C 0,0 C 82 % 87 % 0 % 1012,1 hPa 0,0 l/m 0,8 km/h (0 Bft) S 180 0 min 0,0 UV-I 7,6 C 8,2 C 0,0 km/h (0 Bft)
29.04.2011 05:00 10,3 C 15,8 C 9,1 C 9,6 C 8,2 C 0,0 C 82 % 87 % 0 % 1012,1 hPa 0,0 l/m 0,0 km/h (0 Bft) N-NW 337 0 min 0,0 UV-I 7,4 C 8,2 C 0,0 km/h (0 Bft)
29.04.2011 05:10 10,3 C 15,7 C 9,1 C 9,6 C 8,2 C 0,0 C 82 % 88 % 0 % 1012,1 hPa 0,0 l/m 0,0 km/h (0 Bft) N 0 0 min 0,0 UV-I 7,4 C 8,2 C 0,0 km/h (0 Bft)
29.04.2011 05:15 10,3 C 15,7 C 9,1 C 9,6 C 8,3 C 0,0 C 83 % 88 % 0 % 1012,1 hPa 0,0 l/m 0,0 km/h (0 Bft) N-NW 337 0 min 0,0 UV-I 7,5 C 8,3 C 0,0 km/h (0 Bft)
29.04.2011 05:20 10,2 C 15,7 C 9,2 C 9,6 C 8,3 C 0,0 C 83 % 88 % 0 % 1012,1 hPa 0,0 l/m 0,0 km/h (0 Bft) N-NW 337 0 min 0,0 UV-I 7,4 C 8,3 C 0,0 km/h (0 Bft)
29.04.2011 05:25 10,3 C 15,6 C 9,1 C 9,6 C 8,3 C 0,0 C 83 % 88 % 0 % 1012,1 hPa 0,0 l/m 0,0 km/h (0 Bft) N-NW 337 0 min 0,0 UV-I 7,5 C 8,3 C 0,0 km/h (0 Bft)
29.04.2011 05:30 10,3 C 15,6 C 9,2 C 9,6 C 8,2 C 0,0 C 83 % 88 % 0 % 1012,1 hPa 0,0 l/m 0,0 km/h (0 Bft) W 270 0 min 0,0 UV-I 7,5 C 8,2 C 0,0 km/h (0 Bft)
29.04.2011 05:35 10,4 C 15,7 C 9,1 C 9,6 C 8,1 C 0,0 C 83 % 88 % 0 % 1012,1 hPa 0,0 l/m 0,0 km/h (0 Bft) W 270 0 min 0,0 UV-I 7,6 C 8,1 C 0,0 km/h (0 Bft)
29.04.2011 05:40 10,4 C 15,7 C 9,1 C 9,6 C 8,0 C 0,0 C 83 % 88 % 0 % 1012,1 hPa 0,0 l/m 0,0 km/h (0 Bft) N-NO 22 0 min 0,0 UV-I 7,6 C 8,0 C 0,0 km/h (0 Bft)
29.04.2011 05:45 10,2 C 15,7 C 9,1 C 9,5 C 8,1 C 0,0 C 83 % 88 % 0 % 1012,1 hPa 0,0 l/m 0,0 km/h (0 Bft) NO 45 0 min 0,0 UV-I 7,4 C 8,1 C 0,0 km/h (0 Bft)
29.04.2011 05:50 10,1 C 15,6 C 9,1 C 9,4 C 8,1 C 0,0 C 84 % 88 % 0 % 1012,1 hPa 0,0 l/m 0,0 km/h (0 Bft) NO 45 0 min 0,0 UV-I 7,5 C 8,1 C 0,0 km/h (0 Bft)
29.04.2011 05:55 10,2 C 15,6 C 9,1 C 9,5 C 8,2 C 0,0 C 84 % 89 % 0 % 1012,2 hPa 0,0 l/m 0,0 km/h (0 Bft) W-NW 292 0 min 0,0 UV-I 7,6 C 8,2 C 0,0 km/h (0 Bft)
29.04.2011 06:00 10,2 C 15,6 C 9,1 C 9,5 C 8,1 C 0,0 C 84 % 88 % 0 % 1012,2 hPa 0,0 l/m 0,0 km/h (0 Bft) W-NW 292 0 min 0,0 UV-I 7,6 C 8,1 C 0,0 km/h (0 Bft)
29.04.2011 06:10 10,3 C 15,6 C 9,1 C 9,6 C 8,1 C 0,0 C 83 % 89 % 0 % 1012,2 hPa 0,0 l/m 0,0 km/h (0 Bft) N 0 0 min 0,0 UV-I 7,5 C 8,1 C 0,0 km/h (0 Bft)
29.04.2011 06:15 10,4 C 15,5 C 9,1 C 9,7 C 8,2 C 0,0 C 83 % 89 % 0 % 1012,5 hPa 0,0 l/m 0,0 km/h (0 Bft) S-SO 157 0 min 0,0 UV-I 7,6 C 8,2 C 0,0 km/h (0 Bft)
29.04.2011 06:20 10,5 C 15,6 C 9,1 C 9,7 C 8,2 C 0,0 C 83 % 89 % 0 % 1012,5 hPa 0,0 l/m 0,0 km/h (0 Bft) S-SO 157 0 min 0,0 UV-I 7,7 C 8,2 C 0,0 km/h (0 Bft)
29.04.2011 06:25 10,3 C 15,5 C 9,1 C 9,6 C 8,3 C 0,0 C 83 % 89 % 0 % 1012,5 hPa 0,0 l/m 0,0 km/h (0 Bft) S-SO 157 0 min 0,0 UV-I 7,5 C 8,3 C 0,0 km/h (0 Bft)
29.04.2011 06:30 10,3 C 15,5 C 9,1 C 9,7 C 8,4 C 0,0 C 83 % 89 % 0 % 1012,5 hPa 0,0 l/m 0,0 km/h (0 Bft) S-SO 157 0 min 0,0 UV-I 7,5 C 8,4 C 0,0 km/h (0 Bft)
29.04.2011 06:35 10,4 C 15,4 C 9,1 C 9,8 C 8,5 C 0,0 C 83 % 89 % 0 % 1011,7 hPa 0,0 l/m 0,0 km/h (0 Bft) S-SO 157 0 min 0,0 UV-I 7,6 C 8,5 C 0,0 km/h (0 Bft)
29.04.2011 06:40 10,5 C 15,4 C 9,1 C 9,9 C 8,6 C 0,0 C 84 % 89 % 0 % 1011,7 hPa 0,0 l/m 0,0 km/h (0 Bft) S 180 0 min 0,0 UV-I 7,9 C 8,6 C 0,0 km/h (0 Bft)
29.04.2011 06:45 10,8 C 15,4 C 9,1 C 10,1 C 8,7 C 0,0 C 83 % 89 % 0 % 1011,7 hPa 0,0 l/m 0,0 km/h (0 Bft) O-NO 67 0 min 0,0 UV-I 8,0 C 8,7 C 0,0 km/h (0 Bft)
29.04.2011 06:50 11,5 C 15,4 C 9,1 C 10,6 C 8,7 C 0,0 C 82 % 89 % 0 % 1011,7 hPa 0,0 l/m 0,0 km/h (0 Bft) O-NO 67 0 min 0,0 UV-I 8,5 C 8,7 C 0,0 km/h (0 Bft)
29.04.2011 06:55 11,8 C 15,3 C 9,1 C 10,8 C 8,9 C 0,0 C 81 % 89 % 0 % 1011,8 hPa 0,0 l/m 0,0 km/h (0 Bft) O-NO 67 0 min 0,0 UV-I 8,6 C 8,9 C 0,0 km/h (0 Bft)
29.04.2011 07:00 11,6 C 15,4 C 9,1 C 10,8 C 9,2 C 0,0 C 80 % 89 % 0 % 1011,8 hPa 0,0 l/m 0,0 km/h (0 Bft) O-NO 67 0 min 0,0 UV-I 8,3 C 9,2 C 0,0 km/h (0 Bft)
29.04.2011 07:10 11,8 C 15,3 C 9,1 C 11,1 C 9,8 C 0,0 C 80 % 89 % 0 % 1011,8 hPa 0,0 l/m 0,0 km/h (0 Bft) N 0 0 min 0,0 UV-I 8,5 C 9,8 C 0,0 km/h (0 Bft)
29.04.2011 07:15 11,6 C 15,3 C 9,1 C 11,0 C 9,8 C 0,0 C 80 % 89 % 0 % 1012,2 hPa 0,0 l/m 0,0 km/h (0 Bft) O-NO 67 0 min 0,0 UV-I 8,3 C 9,8 C 0,0 km/h (0 Bft)
29.04.2011 07:20 11,5 C 15,3 C 9,1 C 10,9 C 9,8 C 0,0 C 80 % 89 % 0 % 1012,2 hPa 0,0 l/m 0,0 km/h (0 Bft) O-NO 67 0 min 0,0 UV-I 8,2 C 9,8 C 0,0 km/h (0 Bft)
29.04.2011 07:25 11,5 C 15,3 C 9,1 C 11,0 C 9,9 C 0,0 C 81 % 89 % 0 % 1012,2 hPa 0,0 l/m 0,0 km/h (0 Bft) O-NO 67 0 min 0,0 UV-I 8,4 C 9,9 C 0,0 km/h (0 Bft)
29.04.2011 07:30 11,5 C 15,2 C 9,1 C 11,0 C 10,0 C 0,0 C 80 % 89 % 0 % 1012,2 hPa 0,0 l/m 0,0 km/h (0 Bft) O-NO 67 0 min 0,0 UV-I 8,2 C 10,0 C 0,0 km/h (0 Bft)
29.04.2011 07:35 11,6 C 15,2 C 9,1 C 11,2 C 10,3 C 0,0 C 80 % 89 % 0 % 1012,2 hPa 0,0 l/m 0,2 km/h (0 Bft) O-NO 67 0 min 0,0 UV-I 8,3 C 10,3 C 0,0 km/h (0 Bft)
29.04.2011 07:40 11,7 C 15,2 C 9,1 C 11,3 C 10,6 C 0,0 C 80 % 89 % 0 % 1012,2 hPa 0,0 l/m 0,2 km/h (0 Bft) O-NO 67 0 min 0,0 UV-I 8,4 C 10,6 C 0,0 km/h (0 Bft)
29.04.2011 07:45 12,1 C 15,2 C 9,1 C 11,8 C 11,2 C 0,0 C 80 % 89 % 0 % 1012,2 hPa 0,0 l/m 0,0 km/h (0 Bft) NO 45 0 min 0,0 UV-I 8,8 C 11,2 C 0,0 km/h (0 Bft)
29.04.2011 07:50 12,1 C 15,1 C 9,1 C 11,9 C 11,6 C 0,0 C 79 % 89 % 0 % 1012,2 hPa 0,0 l/m 0,0 km/h (0 Bft) O-NO 67 0 min 0,0 UV-I 8,6 C 11,6 C 1,6 km/h (1 Bft)
29.04.2011 07:55 12,1 C 15,1 C 9,1 C 12,2 C 12,2 C 0,1 C 79 % 89 % 3 % 1012,1 hPa 0,0 l/m 0,0 km/h (0 Bft) N-NO 22 0 min 0,1 UV-I 8,6 C 12,2 C 0,0 km/h (0 Bft)
29.04.2011 08:00 12,3 C 15,1 C 9,1 C 12,7 C 12,7 C 0,4 C 79 % 89 % 11 % 1012,1 hPa 0,0 l/m 0,0 km/h (0 Bft) O-NO 67 0 min 0,1 UV-I 8,8 C 12,7 C 0,0 km/h (0 Bft)
29.04.2011 08:10 12,3 C 15,1 C 9,1 C 13,5 C 13,5 C 1,2 C 78 % 89 % 32 % 1012,1 hPa 0,0 l/m 0,5 km/h (0 Bft) N 0 0 min 0,1 UV-I 8,6 C 13,5 C 0,0 km/h (0 Bft)
29.04.2011 08:15 12,5 C 15,1 C 9,1 C 14,3 C 14,3 C 1,8 C 78 % 89 % 47 % 1012,5 hPa 0,0 l/m 0,3 km/h (0 Bft) N-NW 337 0 min 0,2 UV-I 8,8 C 14,3 C 1,8 km/h (1 Bft)
29.04.2011 08:20 12,8 C 15,1 C 9,1 C 14,6 C 14,6 C 1,8 C 77 % 89 % 47 % 1012,5 hPa 0,0 l/m 0,2 km/h (0 Bft) NW 315 0 min 0,2 UV-I 8,9 C 14,6 C 2,1 km/h (1 Bft)
29.04.2011 08:25 13,0 C 15,1 C 9,1 C 15,0 C 15,0 C 2,0 C 77 % 89 % 53 % 1012,5 hPa 0,0 l/m 0,3 km/h (0 Bft) N-NO 22 0 min 0,2 UV-I 9,1 C 15,0 C 0,0 km/h (0 Bft)
29.04.2011 08:30 12,9 C 15,0 C 9,1 C 15,5 C 15,5 C 2,6 C 76 % 89 % 68 % 1012,5 hPa 0,0 l/m 0,3 km/h (0 Bft) NO 45 0 min 0,2 UV-I 8,8 C 15,5 C 0,0 km/h (0 Bft)
29.04.2011 08:35 13,0 C 15,0 C 9,1 C 16,1 C 16,1 C 3,1 C 77 % 89 % 82 % 1012,3 hPa 0,0 l/m 0,3 km/h (0 Bft) NW 315 0 min 0,3 UV-I 9,1 C 16,1 C 0,0 km/h (0 Bft)
29.04.2011 08:40 13,0 C 15,0 C 9,1 C 16,7 C 16,7 C 3,7 C 77 % 89 % 97 % 1012,3 hPa 0,0 l/m 0,5 km/h (0 Bft) N-NW 337 5 min 0,3 UV-I 9,1 C 16,7 C 0,0 km/h (0 Bft)
29.04.2011 08:45 13,3 C 15,0 C 9,1 C 17,4 C 17,4 C 4,1 C 77 % 89 % 100 % 1012,3 hPa 0,0 l/m 0,5 km/h (0 Bft) O-SO 112 5 min 0,4 UV-I 9,4 C 17,4 C 2,3 km/h (1 Bft)
29.04.2011 08:50 13,3 C 15,0 C 9,1 C 17,9 C 17,9 C 4,6 C 77 % 89 % 100 % 1012,3 hPa 0,0 l/m 0,6 km/h (0 Bft) O-NO 67 5 min 0,4 UV-I 9,4 C 17,9 C 3,5 km/h (1 Bft)
29.04.2011 08:55 13,4 C 15,0 C 9,1 C 18,3 C 18,3 C 4,9 C 76 % 89 % 100 % 1012,9 hPa 0,0 l/m 1,0 km/h (0 Bft) O-SO 112 5 min 0,4 UV-I 9,3 C 18,3 C 3,1 km/h (1 Bft)
29.04.2011 09:00 13,6 C 15,0 C 9,1 C 18,3 C 18,3 C 4,7 C 76 % 89 % 100 % 1012,9 hPa 0,0 l/m 1,4 km/h (1 Bft) O-NO 67 5 min 0,4 UV-I 9,4 C 18,3 C 1,9 km/h (1 Bft)
29.04.2011 09:10 13,9 C 15,0 C 9,1 C 19,3 C 19,3 C 5,4 C 76 % 89 % 100 % 1012,9 hPa 0,0 l/m 1,6 km/h (1 Bft) N 0 10 min 0,6 UV-I 9,7 C 19,3 C 2,1 km/h (1 Bft)
29.04.2011 09:15 14,2 C 15,0 C 9,1 C 19,7 C 19,7 C 5,5 C 74 % 89 % 100 % 1012,3 hPa 0,0 l/m 2,3 km/h (1 Bft) NO 45 5 min 0,6 UV-I 9,6 C 19,7 C 6,6 km/h (2 Bft)
29.04.2011 09:20 14,4 C 15,0 C 9,1 C 19,9 C 19,9 C 5,5 C 73 % 89 % 100 % 1012,3 hPa 0,0 l/m 2,6 km/h (1 Bft) O 90 5 min 0,6 UV-I 9,6 C 19,9 C 3,1 km/h (1 Bft)
29.04.2011 09:25 14,5 C 14,9 C 9,1 C 19,5 C 19,5 C 5,0 C 72 % 89 % 100 % 1012,3 hPa 0,0 l/m 2,7 km/h (1 Bft) O-NO 67 5 min 0,6 UV-I 9,5 C 19,5 C 3,4 km/h (1 Bft)
29.04.2011 09:30 14,7 C 14,9 C 9,1 C 18,4 C 18,4 C 3,7 C 72 % 89 % 97 % 1012,3 hPa 0,0 l/m 2,7 km/h (1 Bft) W 270 5 min 0,6 UV-I 9,7 C 18,4 C 3,1 km/h (1 Bft)
29.04.2011 09:35 14,8 C 14,9 C 9,1 C 17,5 C 17,5 C 2,7 C 72 % 89 % 71 % 1012,9 hPa 0,0 l/m 2,4 km/h (1 Bft) N 360 0 min 0,6 UV-I 9,8 C 17,5 C 3,4 km/h (1 Bft)
29.04.2011 09:40 15,0 C 14,9 C 9,1 C 17,3 C 17,3 C 2,3 C 72 % 89 % 61 % 1012,9 hPa 0,0 l/m 1,9 km/h (1 Bft) N-NO 22 0 min 0,6 UV-I 10,0 C 17,3 C 2,6 km/h (1 Bft)
29.04.2011 09:45 15,2 C 14,9 C 9,1 C 17,3 C 17,3 C 2,1 C 71 % 89 % 55 % 1012,9 hPa 0,0 l/m 2,1 km/h (1 Bft) N-NO 22 0 min 0,7 UV-I 10,0 C 17,3 C 3,5 km/h (1 Bft)
29.04.2011 09:50 15,4 C 14,9 C 9,1 C 17,5 C 17,5 C 2,1 C 69 % 89 % 55 % 1012,9 hPa 0,0 l/m 2,1 km/h (1 Bft) NO 45 0 min 0,7 UV-I 9,7 C 17,5 C 3,7 km/h (1 Bft)
29.04.2011 09:55 15,6 C 14,9 C 9,1 C 17,5 C 17,5 C 1,9 C 67 % 89 % 50 % 1012,5 hPa 0,0 l/m 2,7 km/h (1 Bft) N-NO 22 0 min 0,8 UV-I 9,5 C 17,5 C 3,7 km/h (1 Bft)
29.04.2011 10:00 15,7 C 14,9 C 9,1 C 17,5 C 17,5 C 1,8 C 67 % 89 % 47 % 1012,5 hPa 0,0 l/m 3,2 km/h (1 Bft) NW 315 0 min 0,8 UV-I 9,6 C 17,5 C 3,9 km/h (1 Bft)
29.04.2011 10:10 16,0 C 14,9 C 9,1 C 17,3 C 17,3 C 1,3 C 66 % 89 % 34 % 1012,5 hPa 0,0 l/m 3,5 km/h (1 Bft) N 0 0 min 0,8 UV-I 9,7 C 17,3 C 8,9 km/h (2 Bft)
29.04.2011 10:15 16,1 C 14,9 C 9,1 C 17,2 C 17,2 C 1,1 C 67 % 89 % 29 % 1012,6 hPa 0,0 l/m 4,5 km/h (1 Bft) O-NO 67 0 min 0,8 UV-I 10,0 C 17,2 C 9,2 km/h (2 Bft)
29.04.2011 10:20 16,3 C 14,9 C 9,1 C 18,2 C 18,2 C 1,9 C 68 % 89 % 50 % 1012,6 hPa 0,0 l/m 4,2 km/h (1 Bft) O-NO 67 0 min 0,8 UV-I 10,4 C 18,2 C 6,3 km/h (2 Bft)
29.04.2011 10:25 16,5 C 15,0 C 9,1 C 19,0 C 19,0 C 2,5 C 66 % 89 % 66 % 1012,6 hPa 0,0 l/m 4,3 km/h (1 Bft) NO 45 0 min 0,9 UV-I 10,1 C 19,0 C 9,8 km/h (2 Bft)
29.04.2011 10:30 16,7 C 15,0 C 9,1 C 19,2 C 19,2 C 2,5 C 67 % 89 % 66 % 1012,6 hPa 0,0 l/m 5,0 km/h (1 Bft) O-NO 67 0 min 0,9 UV-I 10,5 C 19,2 C 6,9 km/h (2 Bft)
29.04.2011 10:35 16,7 C 15,0 C 9,1 C 18,4 C 18,4 C 1,7 C 63 % 89 % 45 % 1013,0 hPa 0,0 l/m 6,3 km/h (2 Bft) NO 45 0 min 1,0 UV-I 9,6 C 18,4 C 11,7 km/h (2 Bft)
29.04.2011 10:40 16,9 C 15,0 C 9,1 C 18,0 C 18,0 C 1,1 C 62 % 89 % 29 % 1013,0 hPa 0,0 l/m 7,7 km/h (2 Bft) NO 45 0 min 1,0 UV-I 9,6 C 18,0 C 11,6 km/h (2 Bft)
29.04.2011 10:45 17,3 C 15,0 C 9,1 C 18,1 C 18,1 C 0,8 C 63 % 89 % 21 % 1013,0 hPa 0,0 l/m 6,1 km/h (2 Bft) O 90 0 min 1,1 UV-I 10,2 C 18,1 C 17,4 km/h (3 Bft)
29.04.2011 10:50 17,4 C 15,0 C 9,1 C 18,3 C 18,3 C 0,9 C 63 % 89 % 24 % 1013,0 hPa 0,0 l/m 5,1 km/h (1 Bft) NO 45 0 min 1,1 UV-I 10,3 C 18,3 C 5,6 km/h (1 Bft)
29.04.2011 10:55 17,4 C 15,0 C 9,1 C 18,3 C 18,3 C 0,9 C 62 % 89 % 24 % 1012,7 hPa 0,0 l/m 5,1 km/h (1 Bft) O-NO 67 0 min 1,1 UV-I 10,0 C 18,3 C 12,7 km/h (3 Bft)
29.04.2011 11:00 17,4 C 15,0 C 9,1 C 18,2 C 18,2 C 0,8 C 62 % 89 % 21 % 1012,7 hPa 0,0 l/m 6,4 km/h (2 Bft) O-NO 67 0 min 1,1 UV-I 10,0 C 18,2 C 8,0 km/h (2 Bft)
29.04.2011 11:10 17,8 C 15,1 C 9,1 C 18,1 C 18,1 C 0,3 C 62 % 89 % 8 % 1012,7 hPa 0,0 l/m 8,9 km/h (2 Bft) N 0 0 min 1,1 UV-I 10,4 C 18,1 C 7,9 km/h (2 Bft)
29.04.2011 11:15 17,9 C 15,0 C 9,1 C 18,3 C 18,3 C 0,4 C 62 % 89 % 11 % 1012,4 hPa 0,0 l/m 9,0 km/h (2 Bft) NO 45 0 min 1,2 UV-I 10,5 C 18,3 C 17,9 km/h (3 Bft)
29.04.2011 11:20 17,9 C 15,1 C 9,1 C 18,4 C 18,4 C 0,5 C 61 % 89 % 13 % 1012,4 hPa 0,0 l/m 8,7 km/h (2 Bft) O-NO 67 0 min 1,2 UV-I 10,3 C 18,4 C 12,4 km/h (3 Bft)
29.04.2011 11:25 17,9 C 15,1 C 9,1 C 18,3 C 18,3 C 0,4 C 62 % 89 % 11 % 1012,4 hPa 0,0 l/m 7,6 km/h (2 Bft) O-NO 67 0 min 1,2 UV-I 10,5 C 18,3 C 13,4 km/h (3 Bft)
29.04.2011 11:30 17,8 C 15,1 C 9,1 C 18,4 C 18,4 C 0,6 C 62 % 89 % 16 % 1012,4 hPa 0,0 l/m 7,4 km/h (2 Bft) O-NO 67 0 min 1,2 UV-I 10,4 C 18,4 C 7,1 km/h (2 Bft)
29.04.2011 11:35 18,2 C 15,1 C 9,1 C 18,6 C 18,6 C 0,4 C 61 % 89 % 11 % 1012,6 hPa 0,0 l/m 7,6 km/h (2 Bft) O-NO 67 0 min 1,3 UV-I 10,6 C 18,6 C 11,7 km/h (2 Bft)
29.04.2011 11:40 18,3 C 15,1 C 9,1 C 18,8 C 18,8 C 0,5 C 62 % 89 % 13 % 1012,6 hPa 0,0 l/m 7,1 km/h (2 Bft) O 90 0 min 1,3 UV-I 10,9 C 18,8 C 5,6 km/h (1 Bft)
29.04.2011 11:45 18,5 C 15,1 C 9,1 C 19,1 C 19,1 C 0,6 C 60 % 89 % 16 % 1012,6 hPa 0,0 l/m 6,9 km/h (2 Bft) NO 45 0 min 1,4 UV-I 10,6 C 19,1 C 10,8 km/h (2 Bft)
29.04.2011 11:50 18,7 C 15,1 C 9,1 C 19,3 C 19,3 C 0,6 C 58 % 89 % 16 % 1012,6 hPa 0,0 l/m 7,7 km/h (2 Bft) O-NO 67 0 min 1,4 UV-I 10,3 C 19,3 C 7,1 km/h (2 Bft)
29.04.2011 11:55 18,9 C 15,2 C 9,1 C 20,0 C 20,0 C 1,1 C 58 % 89 % 29 % 1012,0 hPa 0,0 l/m 8,5 km/h (2 Bft) O-NO 67 0 min 1,4 UV-I 10,5 C 20,0 C 10,5 km/h (2 Bft)
29.04.2011 12:00 19,1 C 15,2 C 9,1 C 20,2 C 20,2 C 1,1 C 59 % 89 % 29 % 1012,0 hPa 0,0 l/m 8,0 km/h (2 Bft) O-SO 112 0 min 1,4 UV-I 10,9 C 20,2 C 9,5 km/h (2 Bft)
29.04.2011 12:10 19,5 C 15,2 C 19,4 C 21,6 C 21,6 C 2,1 C 54 % 57 % 55 % 1012,0 hPa 0,0 l/m 8,9 km/h (2 Bft) N 0 0 min 1,4 UV-I 9,9 C 21,6 C 11,3 km/h (2 Bft)
29.04.2011 12:15 19,7 C 15,3 C 19,5 C 22,1 C 22,1 C 2,4 C 54 % 57 % 63 % 1011,9 hPa 0,0 l/m 10,5 km/h (2 Bft) O-NO 67 0 min 1,6 UV-I 10,1 C 22,1 C 11,6 km/h (2 Bft)
29.04.2011 12:20 19,8 C 15,2 C 19,6 C 22,6 C 22,6 C 2,8 C 54 % 54 % 74 % 1011,9 hPa 0,0 l/m 10,3 km/h (2 Bft) O-NO 67 0 min 1,6 UV-I 10,2 C 22,6 C 14,5 km/h (3 Bft)
29.04.2011 12:25 19,9 C 15,3 C 19,9 C 22,6 C 22,6 C 2,7 C 53 % 54 % 71 % 1011,9 hPa 0,0 l/m 9,7 km/h (2 Bft) NO 45 0 min 2,4 UV-I 10,0 C 22,6 C 10,6 km/h (2 Bft)
29.04.2011 12:30 20,0 C 15,3 C 20,0 C 22,6 C 22,6 C 2,6 C 53 % 54 % 68 % 1011,9 hPa 0,0 l/m 10,5 km/h (2 Bft) O-NO 67 0 min 2,4 UV-I 10,1 C 22,6 C 11,6 km/h (2 Bft)
29.04.2011 12:35 20,0 C 15,3 C 20,0 C 22,5 C 22,5 C 2,5 C 52 % 53 % 66 % 1011,8 hPa 0,0 l/m 10,8 km/h (2 Bft) O-NO 67 0 min 2,4 UV-I 9,8 C 22,5 C 17,2 km/h (3 Bft)
29.04.2011 12:40 20,1 C 15,4 C 20,1 C 22,5 C 22,5 C 2,4 C 52 % 54 % 63 % 1011,8 hPa 0,0 l/m 10,6 km/h (2 Bft) O-NO 67 0 min 2,4 UV-I 9,9 C 22,5 C 8,4 km/h (2 Bft)
29.04.2011 12:45 20,4 C 15,4 C 20,4 C 22,9 C 22,9 C 2,5 C 53 % 54 % 66 % 1011,8 hPa 0,0 l/m 10,5 km/h (2 Bft) O-NO 67 0 min 2,7 UV-I 10,5 C 22,9 C 18,2 km/h (3 Bft)
29.04.2011 12:50 20,7 C 15,4 C 20,7 C 23,2 C 23,2 C 2,5 C 52 % 53 % 66 % 1011,8 hPa 0,0 l/m 9,7 km/h (2 Bft) O-NO 67 0 min 2,7 UV-I 10,5 C 23,2 C 7,7 km/h (2 Bft)
29.04.2011 12:55 20,7 C 15,5 C 20,7 C 23,5 C 23,5 C 2,8 C 51 % 53 % 74 % 1011,6 hPa 0,0 l/m 8,5 km/h (2 Bft) O-NO 67 0 min 2,5 UV-I 10,2 C 23,5 C 9,2 km/h (2 Bft)
29.04.2011 13:00 20,8 C 15,5 C 20,7 C 23,5 C 23,5 C 2,7 C 51 % 52 % 71 % 1011,6 hPa 0,0 l/m 8,4 km/h (2 Bft) O 90 0 min 2,5 UV-I 10,3 C 23,5 C 6,3 km/h (2 Bft)
29.04.2011 13:10 20,7 C 15,5 C 20,7 C 22,6 C 22,6 C 1,9 C 47 % 49 % 50 % 1011,6 hPa 0,0 l/m 13,0 km/h (3 Bft) N 0 0 min 2,3 UV-I 9,0 C 22,6 C 25,1 km/h (4 Bft)
29.04.2011 13:15 21,1 C 15,6 C 20,9 C 22,9 C 22,9 C 1,8 C 47 % 49 % 47 % 1011,4 hPa 0,0 l/m 13,7 km/h (3 Bft) O-NO 67 0 min 2,6 UV-I 9,3 C 22,9 C 21,7 km/h (4 Bft)
29.04.2011 13:20 21,2 C 15,5 C 21,1 C 23,3 C 23,3 C 2,1 C 47 % 49 % 55 % 1011,4 hPa 0,0 l/m 12,4 km/h (3 Bft) NO 45 0 min 2,6 UV-I 9,4 C 23,3 C 16,6 km/h (3 Bft)
29.04.2011 13:25 21,2 C 15,5 C 21,3 C 23,7 C 23,7 C 2,5 C 48 % 49 % 66 % 1011,4 hPa 0,0 l/m 11,1 km/h (2 Bft) NO 45 0 min 2,6 UV-I 9,7 C 23,7 C 15,9 km/h (3 Bft)
29.04.2011 13:30 21,2 C 15,6 C 21,3 C 23,7 C 23,7 C 2,5 C 47 % 49 % 66 % 1011,4 hPa 0,0 l/m 10,3 km/h (2 Bft) NO 45 0 min 2,6 UV-I 9,4 C 23,7 C 11,4 km/h (2 Bft)
29.04.2011 13:35 21,5 C 15,6 C 21,5 C 23,8 C 23,8 C 2,3 C 47 % 49 % 61 % 1011,1 hPa 0,0 l/m 9,5 km/h (2 Bft) O-NO 67 0 min 2,5 UV-I 9,7 C 23,8 C 17,9 km/h (3 Bft)
29.04.2011 13:40 21,5 C 15,6 C 21,5 C 23,9 C 23,9 C 2,4 C 47 % 49 % 63 % 1011,1 hPa 0,0 l/m 9,3 km/h (2 Bft) O-NO 67 0 min 2,5 UV-I 9,7 C 23,9 C 17,1 km/h (3 Bft)
29.04.2011 13:45 21,6 C 15,7 C 21,7 C 24,1 C 24,1 C 2,5 C 46 % 49 % 66 % 1011,1 hPa 0,0 l/m 9,8 km/h (2 Bft) O-NO 67 0 min 2,5 UV-I 9,5 C 24,1 C 7,2 km/h (2 Bft)
29.04.2011 13:50 21,7 C 15,7 C 21,6 C 24,1 C 24,1 C 2,4 C 46 % 47 % 63 % 1011,1 hPa 0,0 l/m 10,0 km/h (2 Bft) O-NO 67 0 min 2,5 UV-I 9,6 C 24,1 C 12,6 km/h (3 Bft)
29.04.2011 13:55 21,6 C 15,8 C 21,8 C 24,2 C 24,2 C 2,6 C 47 % 48 % 68 % 1011,1 hPa 0,0 l/m 10,0 km/h (2 Bft) O-NO 67 0 min 2,5 UV-I 9,8 C 24,2 C 10,5 km/h (2 Bft)
29.04.2011 14:00 21,6 C 15,8 C 21,7 C 24,0 C 24,0 C 2,4 C 46 % 46 % 63 % 1011,1 hPa 0,0 l/m 10,9 km/h (2 Bft) O-NO 67 0 min 2,5 UV-I 9,5 C 24,0 C 6,9 km/h (2 Bft)
29.04.2011 14:10 21,8 C 15,9 C 22,3 C 24,5 C 24,5 C 2,7 C 44 % 45 % 71 % 1011,1 hPa 0,0 l/m 9,7 km/h (2 Bft) N 0 0 min 2,5 UV-I 9,0 C 24,5 C 6,4 km/h (2 Bft)
29.04.2011 14:15 22,0 C 15,9 C 22,3 C 24,7 C 24,7 C 2,7 C 43 % 44 % 71 % 1011,0 hPa 0,0 l/m 10,5 km/h (2 Bft) O-NO 67 0 min 2,4 UV-I 8,8 C 24,7 C 11,4 km/h (2 Bft)
29.04.2011 14:20 22,0 C 16,0 C 22,3 C 24,6 C 24,6 C 2,6 C 45 % 46 % 68 % 1011,0 hPa 0,0 l/m 10,8 km/h (2 Bft) O-NO 67 0 min 2,4 UV-I 9,5 C 24,6 C 16,3 km/h (3 Bft)
29.04.2011 14:25 21,9 C 16,0 C 21,9 C 24,0 C 24,0 C 2,1 C 43 % 44 % 55 % 1011,0 hPa 0,0 l/m 13,4 km/h (3 Bft) O-NO 67 0 min 1,6 UV-I 8,7 C 24,0 C 19,6 km/h (3 Bft)
29.04.2011 14:30 21,5 C 16,0 C 21,4 C 23,0 C 23,0 C 1,5 C 43 % 44 % 39 % 1011,0 hPa 0,0 l/m 13,7 km/h (3 Bft) O-NO 67 0 min 1,6 UV-I 8,4 C 23,0 C 21,2 km/h (4 Bft)
29.04.2011 14:35 21,3 C 16,0 C 21,0 C 22,0 C 22,0 C 0,7 C 43 % 45 % 18 % 1011,0 hPa 0,0 l/m 15,4 km/h (3 Bft) NO 45 0 min 0,9 UV-I 8,2 C 22,0 C 28,8 km/h (4 Bft)
29.04.2011 14:40 21,3 C 16,1 C 20,9 C 21,8 C 21,8 C 0,5 C 43 % 45 % 13 % 1011,0 hPa 0,0 l/m 16,7 km/h (3 Bft) O-NO 67 0 min 0,9 UV-I 8,2 C 21,8 C 12,2 km/h (2 Bft)
29.04.2011 14:45 21,1 C 16,1 C 20,7 C 21,5 C 21,5 C 0,4 C 42 % 44 % 11 % 1011,0 hPa 0,0 l/m 15,3 km/h (3 Bft) O-NO 67 0 min 0,5 UV-I 7,7 C 21,5 C 27,4 km/h (4 Bft)
29.04.2011 14:50 20,5 C 16,2 C 20,1 C 20,9 C 20,9 C 0,4 C 40 % 42 % 11 % 1011,0 hPa 0,0 l/m 17,9 km/h (3 Bft) O-NO 67 0 min 0,5 UV-I 6,4 C 20,9 C 26,1 km/h (4 Bft)
29.04.2011 14:55 19,9 C 16,3 C 19,5 C 20,2 C 19,8 C 0,3 C 42 % 44 % 8 % 1011,2 hPa 0,0 l/m 21,7 km/h (4 Bft) O-NO 67 0 min 0,6 UV-I 6,6 C 19,8 C 39,7 km/h (6 Bft)
29.04.2011 15:00 19,5 C 16,3 C 19,3 C 19,4 C 18,9 C 0,0 C 42 % 44 % 0 % 1011,2 hPa 0,0 l/m 19,6 km/h (3 Bft) O-NO 67 0 min 0,6 UV-I 6,2 C 18,9 C 27,8 km/h (4 Bft)
29.04.2011 15:10 18,0 C 16,6 C 17,5 C 17,4 C 14,3 C 0,0 C 53 % 56 % 0 % 1011,2 hPa 0,0 l/m 13,4 km/h (3 Bft) N 0 0 min 0,1 UV-I 8,3 C 14,3 C 0,0 km/h (0 Bft)
29.04.2011 15:15 18,0 C 16,5 C 17,1 C 16,9 C 14,8 C 0,0 C 52 % 55 % 0 % 1011,9 hPa 0,0 l/m 1,3 km/h (1 Bft) NO 45 0 min 0,2 UV-I 8,0 C 14,8 C 2,7 km/h (1 Bft)
29.04.2011 15:20 18,0 C 16,6 C 17,0 C 17,1 C 15,2 C 0,0 C 54 % 57 % 0 % 1011,9 hPa 0,0 l/m 0,8 km/h (0 Bft) O-SO 112 0 min 0,2 UV-I 8,6 C 15,2 C 1,9 km/h (1 Bft)
29.04.2011 15:25 17,8 C 16,6 C 16,8 C 17,1 C 15,6 C 0,0 C 55 % 59 % 0 % 1011,9 hPa 0,0 l/m 1,8 km/h (1 Bft) O-NO 67 0 min 0,3 UV-I 8,6 C 15,6 C 4,5 km/h (1 Bft)
29.04.2011 15:30 17,6 C 16,6 C 16,7 C 17,0 C 15,9 C 0,0 C 56 % 61 % 0 % 1011,9 hPa 0,0 l/m 1,6 km/h (1 Bft) W 270 0 min 0,3 UV-I 8,7 C 15,9 C 0,0 km/h (0 Bft)
29.04.2011 15:35 17,6 C 16,7 C 16,5 C 17,0 C 15,8 C 0,0 C 57 % 63 % 0 % 1011,2 hPa 0,0 l/m 1,9 km/h (1 Bft) O-NO 67 0 min 0,3 UV-I 9,0 C 15,8 C 1,8 km/h (1 Bft)
29.04.2011 15:40 17,5 C 16,7 C 16,4 C 16,9 C 15,8 C 0,0 C 57 % 63 % 0 % 1011,2 hPa 0,0 l/m 2,3 km/h (1 Bft) O-NO 67 0 min 0,3 UV-I 8,9 C 15,8 C 5,0 km/h (1 Bft)
29.04.2011 15:45 17,6 C 16,7 C 16,7 C 17,2 C 16,4 C 0,0 C 57 % 62 % 0 % 1011,2 hPa 0,0 l/m 3,5 km/h (1 Bft) NO 45 0 min 0,6 UV-I 9,0 C 16,4 C 6,1 km/h (2 Bft)
29.04.2011 15:50 17,7 C 16,6 C 16,9 C 17,5 C 17,1 C 0,0 C 54 % 59 % 0 % 1011,2 hPa 0,0 l/m 5,0 km/h (1 Bft) O-NO 67 0 min 0,6 UV-I 8,3 C 17,1 C 8,7 km/h (2 Bft)
29.04.2011 15:55 18,1 C 16,7 C 17,9 C 18,3 C 18,3 C 0,2 C 54 % 58 % 5 % 1011,1 hPa 0,0 l/m 6,3 km/h (2 Bft) O-NO 67 0 min 1,2 UV-I 8,6 C 18,3 C 8,7 km/h (2 Bft)
29.04.2011 16:00 18,4 C 16,7 C 18,4 C 19,3 C 19,3 C 0,9 C 53 % 56 % 24 % 1011,1 hPa 0,0 l/m 6,4 km/h (2 Bft) O-NO 67 0 min 1,2 UV-I 8,6 C 19,3 C 10,9 km/h (2 Bft)
29.04.2011 16:10 19,1 C 16,7 C 19,4 C 21,5 C 21,5 C 2,4 C 52 % 55 % 63 % 1011,1 hPa 0,0 l/m 4,8 km/h (1 Bft) N 0 0 min 1,2 UV-I 9,0 C 21,5 C 9,3 km/h (2 Bft)
29.04.2011 16:15 19,3 C 16,8 C 19,6 C 22,1 C 22,1 C 2,8 C 53 % 54 % 74 % 1010,9 hPa 0,0 l/m 4,5 km/h (1 Bft) O-NO 67 0 min 1,1 UV-I 9,5 C 22,1 C 6,3 km/h (2 Bft)
29.04.2011 16:20 19,6 C 16,8 C 19,9 C 22,4 C 22,4 C 2,8 C 53 % 55 % 74 % 1010,9 hPa 0,0 l/m 5,0 km/h (1 Bft) O-NO 67 0 min 1,1 UV-I 9,8 C 22,4 C 7,6 km/h (2 Bft)
29.04.2011 16:25 19,9 C 16,7 C 20,3 C 22,7 C 22,7 C 2,8 C 52 % 52 % 74 % 1010,9 hPa 0,0 l/m 7,2 km/h (2 Bft) O-NO 67 0 min 1,0 UV-I 9,7 C 22,7 C 13,0 km/h (3 Bft)
29.04.2011 16:30 20,0 C 16,7 C 20,3 C 22,6 C 22,6 C 2,6 C 51 % 53 % 68 % 1010,9 hPa 0,0 l/m 8,9 km/h (2 Bft) O-NO 67 0 min 1,0 UV-I 9,6 C 22,6 C 9,8 km/h (2 Bft)
29.04.2011 16:35 20,0 C 16,7 C 20,3 C 22,4 C 22,4 C 2,4 C 48 % 49 % 63 % 1010,6 hPa 0,0 l/m 10,5 km/h (2 Bft) O-NO 67 0 min 0,9 UV-I 8,7 C 22,4 C 21,2 km/h (4 Bft)
29.04.2011 16:40 20,2 C 16,7 C 20,3 C 22,0 C 22,0 C 1,8 C 49 % 49 % 47 % 1010,6 hPa 0,0 l/m 10,1 km/h (2 Bft) O-NO 67 0 min 0,9 UV-I 9,1 C 22,0 C 11,4 km/h (2 Bft)
29.04.2011 16:45 20,1 C 16,7 C 20,1 C 21,8 C 21,8 C 1,7 C 47 % 48 % 45 % 1010,6 hPa 0,0 l/m 11,3 km/h (2 Bft) O-SO 112 0 min 0,7 UV-I 8,4 C 21,8 C 7,2 km/h (2 Bft)
29.04.2011 16:50 20,0 C 16,7 C 20,0 C 21,4 C 21,4 C 1,4 C 46 % 47 % 37 % 1010,6 hPa 0,0 l/m 10,1 km/h (2 Bft) NO 45 0 min 0,7 UV-I 8,0 C 21,4 C 6,9 km/h (2 Bft)
29.04.2011 16:55 19,9 C 16,7 C 19,9 C 21,2 C 21,2 C 1,3 C 44 % 45 % 34 % 1010,6 hPa 0,0 l/m 8,7 km/h (2 Bft) O-NO 67 0 min 0,5 UV-I 7,3 C 21,2 C 6,4 km/h (2 Bft)
29.04.2011 17:00 19,9 C 16,7 C 19,6 C 20,8 C 20,8 C 0,9 C 43 % 46 % 24 % 1010,6 hPa 0,0 l/m 8,2 km/h (2 Bft) O-NO 67 0 min 0,5 UV-I 6,9 C 20,8 C 8,5 km/h (2 Bft)
29.04.2011 17:10 19,7 C 16,8 C 19,4 C 20,4 C 20,4 C 0,7 C 41 % 44 % 18 % 1010,6 hPa 0,0 l/m 8,0 km/h (2 Bft) N 0 0 min 0,2 UV-I 6,1 C 20,4 C 11,6 km/h (2 Bft)
29.04.2011 17:15 19,6 C 16,8 C 19,3 C 20,2 C 20,2 C 0,6 C 44 % 47 % 16 % 1010,3 hPa 0,0 l/m 8,2 km/h (2 Bft) NO 45 0 min 0,3 UV-I 7,0 C 20,2 C 7,1 km/h (2 Bft)
29.04.2011 17:20 19,5 C 16,8 C 19,3 C 20,0 C 20,0 C 0,5 C 46 % 48 % 13 % 1010,3 hPa 0,0 l/m 7,7 km/h (2 Bft) NO 45 0 min 0,3 UV-I 7,6 C 20,0 C 9,3 km/h (2 Bft)
29.04.2011 17:25 19,6 C 16,9 C 19,2 C 20,1 C 20,1 C 0,5 C 46 % 48 % 13 % 1010,3 hPa 0,0 l/m 5,8 km/h (2 Bft) O 90 0 min 0,4 UV-I 7,7 C 20,1 C 6,3 km/h (2 Bft)
29.04.2011 17:30 19,9 C 16,9 C 19,5 C 20,5 C 20,5 C 0,6 C 47 % 48 % 16 % 1010,3 hPa 0,0 l/m 5,3 km/h (1 Bft) O-NO 67 0 min 0,4 UV-I 8,3 C 20,5 C 3,9 km/h (1 Bft)
29.04.2011 17:35 20,0 C 16,8 C 19,7 C 21,4 C 21,4 C 1,4 C 45 % 47 % 37 % 1010,2 hPa 0,0 l/m 7,1 km/h (2 Bft) O-NO 67 0 min 0,4 UV-I 7,7 C 21,4 C 9,2 km/h (2 Bft)
29.04.2011 17:40 20,3 C 16,8 C 19,9 C 21,7 C 21,7 C 1,4 C 44 % 48 % 37 % 1010,2 hPa 0,0 l/m 8,4 km/h (2 Bft) O-NO 67 0 min 0,4 UV-I 7,6 C 21,7 C 14,0 km/h (3 Bft)
29.04.2011 17:45 20,4 C 16,8 C 20,1 C 22,2 C 22,2 C 1,8 C 45 % 48 % 47 % 1010,2 hPa 0,0 l/m 7,2 km/h (2 Bft) O-NO 67 0 min 0,3 UV-I 8,1 C 22,2 C 5,3 km/h (1 Bft)
29.04.2011 17:50 20,7 C 16,8 C 20,4 C 22,8 C 22,8 C 2,1 C 46 % 48 % 55 % 1010,2 hPa 0,0 l/m 5,5 km/h (1 Bft) O-SO 112 0 min 0,3 UV-I 8,7 C 22,8 C 4,5 km/h (1 Bft)
29.04.2011 17:55 20,8 C 16,8 C 20,5 C 23,3 C 23,3 C 2,5 C 45 % 47 % 66 % 1010,1 hPa 0,0 l/m 5,0 km/h (1 Bft) O-NO 67 0 min 0,3 UV-I 8,4 C 23,3 C 8,5 km/h (2 Bft)
29.04.2011 18:00 20,7 C 16,8 C 20,3 C 22,9 C 22,9 C 2,2 C 44 % 46 % 58 % 1010,1 hPa 0,0 l/m 6,1 km/h (2 Bft) NO 45 0 min 0,3 UV-I 8,0 C 22,9 C 5,5 km/h (1 Bft)
29.04.2011 18:10 20,5 C 16,8 C 20,0 C 21,9 C 21,9 C 1,4 C 47 % 49 % 37 % 1010,1 hPa 0,0 l/m 3,2 km/h (1 Bft) N 0 0 min 0,2 UV-I 8,8 C 21,9 C 2,3 km/h (1 Bft)
29.04.2011 18:15 20,2 C 16,8 C 19,9 C 21,8 C 21,8 C 1,6 C 47 % 50 % 42 % 1010,1 hPa 0,0 l/m 4,0 km/h (1 Bft) O-NO 67 0 min 0,2 UV-I 8,5 C 21,8 C 8,4 km/h (2 Bft)
29.04.2011 18:20 20,2 C 16,9 C 19,9 C 21,7 C 21,7 C 1,5 C 48 % 49 % 39 % 1010,1 hPa 0,0 l/m 4,5 km/h (1 Bft) O-NO 67 0 min 0,2 UV-I 8,8 C 21,7 C 4,3 km/h (1 Bft)
29.04.2011 18:25 20,2 C 16,9 C 19,9 C 21,8 C 21,8 C 1,6 C 49 % 51 % 42 % 1010,1 hPa 0,0 l/m 3,7 km/h (1 Bft) O 90 0 min 0,1 UV-I 9,1 C 21,8 C 3,9 km/h (1 Bft)
29.04.2011 18:30 20,3 C 17,0 C 19,7 C 21,7 C 21,7 C 1,4 C 49 % 51 % 37 % 1010,1 hPa 0,0 l/m 2,9 km/h (1 Bft) O-NO 67 0 min 0,1 UV-I 9,2 C 21,7 C 4,0 km/h (1 Bft)
29.04.2011 18:35 20,1 C 17,0 C 19,7 C 21,5 C 21,5 C 1,4 C 49 % 52 % 37 % 1010,1 hPa 0,0 l/m 2,4 km/h (1 Bft) O-NO 67 0 min 0,1 UV-I 9,0 C 21,5 C 1,9 km/h (1 Bft)
29.04.2011 18:40 20,1 C 17,0 C 19,6 C 21,5 C 21,5 C 1,4 C 50 % 53 % 37 % 1010,1 hPa 0,0 l/m 2,7 km/h (1 Bft) O-NO 67 0 min 0,1 UV-I 9,3 C 21,5 C 4,0 km/h (1 Bft)
29.04.2011 18:45 20,0 C 16,9 C 19,7 C 21,4 C 21,4 C 1,4 C 49 % 51 % 37 % 1010,1 hPa 0,0 l/m 3,4 km/h (1 Bft) NO 45 0 min 0,0 UV-I 9,0 C 21,4 C 3,2 km/h (1 Bft)
29.04.2011 18:50 19,9 C 17,0 C 19,4 C 21,1 C 21,1 C 1,2 C 49 % 51 % 32 % 1010,1 hPa 0,0 l/m 3,5 km/h (1 Bft) O-NO 67 0 min 0,0 UV-I 8,9 C 21,1 C 3,9 km/h (1 Bft)
29.04.2011 18:55 19,7 C 17,0 C 19,3 C 20,3 C 20,3 C 0,6 C 50 % 52 % 16 % 1010,2 hPa 0,0 l/m 3,7 km/h (1 Bft) NO 45 0 min 0,0 UV-I 9,0 C 20,3 C 5,1 km/h (1 Bft)
29.04.2011 19:00 19,6 C 17,0 C 19,1 C 19,9 C 19,9 C 0,3 C 50 % 53 % 8 % 1010,2 hPa 0,0 l/m 4,2 km/h (1 Bft) O-NO 67 0 min 0,0 UV-I 8,9 C 19,9 C 6,3 km/h (2 Bft)
29.04.2011 19:10 19,2 C 17,0 C 18,7 C 19,2 C 19,1 C 0,0 C 51 % 54 % 0 % 1010,2 hPa 0,0 l/m 5,1 km/h (1 Bft) N 0 0 min 0,0 UV-I 8,8 C 19,1 C 4,3 km/h (1 Bft)
29.04.2011 19:15 19,0 C 17,0 C 18,5 C 18,9 C 18,8 C 0,0 C 51 % 54 % 0 % 1010,4 hPa 0,0 l/m 4,8 km/h (1 Bft) O-NO 67 0 min 0,0 UV-I 8,6 C 18,8 C 5,8 km/h (2 Bft)
29.04.2011 19:20 19,1 C 17,0 C 18,4 C 19,0 C 18,7 C 0,0 C 52 % 55 % 0 % 1010,4 hPa 0,0 l/m 4,5 km/h (1 Bft) O-NO 67 0 min 0,0 UV-I 9,0 C 18,7 C 4,5 km/h (1 Bft)
29.04.2011 19:25 18,8 C 17,0 C 18,3 C 18,7 C 18,4 C 0,0 C 53 % 56 % 0 % 1010,4 hPa 0,0 l/m 4,3 km/h (1 Bft) O-NO 67 0 min 0,0 UV-I 9,0 C 18,4 C 6,9 km/h (2 Bft)
29.04.2011 19:30 18,7 C 17,0 C 18,2 C 18,5 C 18,2 C 0,0 C 54 % 56 % 0 % 1010,4 hPa 0,0 l/m 4,7 km/h (1 Bft) O-NO 67 0 min 0,0 UV-I 9,2 C 18,2 C 7,2 km/h (2 Bft)
29.04.2011 19:35 18,6 C 17,0 C 18,0 C 18,4 C 18,1 C 0,0 C 53 % 55 % 0 % 1010,8 hPa 0,0 l/m 7,9 km/h (2 Bft) O 90 0 min 0,0 UV-I 8,8 C 18,1 C 12,6 km/h (3 Bft)
29.04.2011 19:40 18,4 C 17,0 C 17,9 C 18,3 C 18,0 C 0,0 C 53 % 55 % 0 % 1010,8 hPa 0,0 l/m 9,3 km/h (2 Bft) O-NO 67 0 min 0,0 UV-I 8,6 C 18,0 C 15,1 km/h (3 Bft)
29.04.2011 19:45 18,3 C 17,0 C 17,9 C 18,2 C 17,9 C 0,0 C 52 % 54 % 0 % 1010,8 hPa 0,0 l/m 9,0 km/h (2 Bft) O-NO 67 0 min 0,0 UV-I 8,3 C 17,9 C 6,1 km/h (2 Bft)
29.04.2011 19:50 18,2 C 17,0 C 17,7 C 18,0 C 17,7 C 0,0 C 52 % 56 % 0 % 1010,8 hPa 0,0 l/m 7,4 km/h (2 Bft) O-NO 67 0 min 0,0 UV-I 8,2 C 17,7 C 4,7 km/h (1 Bft)
29.04.2011 19:55 18,0 C 17,0 C 17,3 C 17,8 C 17,3 C 0,0 C 53 % 56 % 0 % 1010,8 hPa 0,0 l/m 5,5 km/h (1 Bft) O-NO 67 0 min 0,0 UV-I 8,3 C 17,3 C 4,2 km/h (1 Bft)
29.04.2011 20:00 17,9 C 17,0 C 17,2 C 17,6 C 17,1 C 0,0 C 53 % 56 % 0 % 1010,8 hPa 0,0 l/m 5,8 km/h (2 Bft) O-NO 67 0 min 0,0 UV-I 8,2 C 17,1 C 6,9 km/h (2 Bft)
29.04.2011 20:10 17,5 C 17,0 C 16,9 C 17,2 C 16,6 C 0,0 C 53 % 55 % 0 % 1010,8 hPa 0,0 l/m 5,1 km/h (1 Bft) N 0 0 min 0,0 UV-I 7,8 C 16,6 C 6,6 km/h (2 Bft)
29.04.2011 20:15 17,3 C 17,0 C 16,7 C 17,0 C 16,5 C 0,0 C 52 % 55 % 0 % 1011,0 hPa 0,0 l/m 6,4 km/h (2 Bft) O-NO 67 0 min 0,0 UV-I 7,3 C 16,5 C 6,9 km/h (2 Bft)
29.04.2011 20:20 17,3 C 17,0 C 16,7 C 17,0 C 16,5 C 0,0 C 52 % 54 % 0 % 1011,0 hPa 0,0 l/m 6,4 km/h (2 Bft) NO 45 0 min 0,0 UV-I 7,3 C 16,5 C 9,8 km/h (2 Bft)
29.04.2011 20:25 17,3 C 16,9 C 16,5 C 17,0 C 16,4 C 0,0 C 52 % 55 % 0 % 1011,0 hPa 0,0 l/m 5,6 km/h (1 Bft) O-NO 67 0 min 0,0 UV-I 7,3 C 16,4 C 5,0 km/h (1 Bft)
29.04.2011 20:30 17,1 C 16,9 C 16,4 C 16,8 C 16,3 C 0,0 C 52 % 55 % 0 % 1011,0 hPa 0,0 l/m 5,1 km/h (1 Bft) O-NO 67 0 min 0,0 UV-I 7,2 C 16,3 C 4,2 km/h (1 Bft)
29.04.2011 20:35 16,8 C 16,9 C 16,3 C 16,5 C 16,0 C 0,0 C 53 % 56 % 0 % 1011,1 hPa 0,0 l/m 5,5 km/h (1 Bft) O-NO 67 0 min 0,0 UV-I 7,2 C 16,0 C 6,4 km/h (2 Bft)
29.04.2011 20:40 16,7 C 16,9 C 16,1 C 16,4 C 15,7 C 0,0 C 54 % 57 % 0 % 1011,1 hPa 0,0 l/m 5,0 km/h (1 Bft) O-NO 67 0 min 0,0 UV-I 7,3 C 15,7 C 4,5 km/h (1 Bft)
29.04.2011 20:45 16,3 C 17,0 C 15,7 C 16,0 C 15,3 C 0,0 C 55 % 58 % 0 % 1011,1 hPa 0,0 l/m 4,2 km/h (1 Bft) O-NO 67 0 min 0,0 UV-I 7,2 C 15,3 C 5,8 km/h (2 Bft)
29.04.2011 20:50 16,2 C 17,0 C 15,6 C 15,8 C 15,1 C 0,0 C 55 % 58 % 0 % 1011,1 hPa 0,0 l/m 4,2 km/h (1 Bft) NO 45 0 min 0,0 UV-I 7,2 C 15,1 C 6,8 km/h (2 Bft)
29.04.2011 20:55 16,1 C 17,0 C 15,3 C 15,7 C 14,9 C 0,0 C 55 % 59 % 0 % 1010,8 hPa 0,0 l/m 4,3 km/h (1 Bft) O-NO 67 0 min 0,0 UV-I 7,1 C 14,9 C 4,8 km/h (1 Bft)
29.04.2011 21:00 16,0 C 17,0 C 15,3 C 15,6 C 14,7 C 0,0 C 55 % 59 % 0 % 1010,8 hPa 0,0 l/m 3,9 km/h (1 Bft) NO 45 0 min 0,0 UV-I 7,0 C 14,7 C 2,1 km/h (1 Bft)
29.04.2011 21:10 15,7 C 16,9 C 15,0 C 15,2 C 14,1 C 0,0 C 57 % 60 % 0 % 1010,8 hPa 0,0 l/m 2,1 km/h (1 Bft) N 0 0 min 0,0 UV-I 7,2 C 14,1 C 2,9 km/h (1 Bft)
29.04.2011 21:15 15,5 C 16,9 C 14,8 C 14,9 C 13,7 C 0,0 C 58 % 61 % 0 % 1011,0 hPa 0,0 l/m 2,6 km/h (1 Bft) NO 45 0 min 0,0 UV-I 7,3 C 13,7 C 3,4 km/h (1 Bft)
29.04.2011 21:20 15,5 C 16,9 C 14,7 C 14,8 C 13,5 C 0,0 C 58 % 62 % 0 % 1011,0 hPa 0,0 l/m 2,7 km/h (1 Bft) O-NO 67 0 min 0,0 UV-I 7,3 C 13,5 C 3,4 km/h (1 Bft)
29.04.2011 21:25 15,2 C 16,9 C 14,5 C 14,6 C 13,4 C 0,0 C 59 % 62 % 0 % 1011,0 hPa 0,0 l/m 3,1 km/h (1 Bft) O-NO 67 0 min 0,0 UV-I 7,2 C 13,4 C 4,0 km/h (1 Bft)
29.04.2011 21:30 15,1 C 16,9 C 14,4 C 14,5 C 13,4 C 0,0 C 59 % 62 % 0 % 1011,0 hPa 0,0 l/m 3,9 km/h (1 Bft) O-NO 67 0 min 0,0 UV-I 7,1 C 13,4 C 6,4 km/h (2 Bft)
29.04.2011 21:35 15,1 C 16,9 C 14,4 C 14,6 C 13,6 C 0,0 C 59 % 62 % 0 % 1011,6 hPa 0,0 l/m 5,0 km/h (1 Bft) NO 45 0 min 0,0 UV-I 7,1 C 13,6 C 6,1 km/h (2 Bft)
29.04.2011 21:40 15,0 C 16,9 C 14,5 C 14,6 C 13,7 C 0,0 C 59 % 61 % 0 % 1011,6 hPa 0,0 l/m 4,8 km/h (1 Bft) NO 45 0 min 0,0 UV-I 7,1 C 13,7 C 5,1 km/h (1 Bft)
29.04.2011 21:45 15,1 C 16,9 C 14,5 C 14,7 C 13,8 C 0,0 C 59 % 62 % 0 % 1011,6 hPa 0,0 l/m 4,7 km/h (1 Bft) O-NO 67 0 min 0,0 UV-I 7,1 C 13,8 C 4,3 km/h (1 Bft)
29.04.2011 21:50 15,1 C 16,9 C 14,4 C 14,7 C 13,8 C 0,0 C 59 % 62 % 0 % 1011,6 hPa 0,0 l/m 4,8 km/h (1 Bft) O-NO 67 0 min 0,0 UV-I 7,1 C 13,8 C 4,8 km/h (1 Bft)
29.04.2011 21:55 15,1 C 16,8 C 14,3 C 14,6 C 13,7 C 0,0 C 60 % 63 % 0 % 1011,7 hPa 0,0 l/m 3,1 km/h (1 Bft) O-NO 67 0 min 0,0 UV-I 7,4 C 13,7 C 0,0 km/h (0 Bft)
29.04.2011 22:00 14,9 C 16,8 C 14,1 C 14,4 C 13,5 C 0,0 C 60 % 63 % 0 % 1011,7 hPa 0,0 l/m 2,1 km/h (1 Bft) NO 45 0 min 0,0 UV-I 7,2 C 13,5 C 2,9 km/h (1 Bft)
29.04.2011 22:10 14,9 C 16,8 C 14,1 C 14,4 C 13,3 C 0,0 C 60 % 64 % 0 % 1011,7 hPa 0,0 l/m 3,5 km/h (1 Bft) N 0 0 min 0,0 UV-I 7,2 C 13,3 C 3,9 km/h (1 Bft)
29.04.2011 22:15 14,8 C 16,8 C 14,0 C 14,3 C 13,2 C 0,0 C 60 % 64 % 0 % 1012,2 hPa 0,0 l/m 3,4 km/h (1 Bft) NO 45 0 min 0,0 UV-I 7,1 C 13,2 C 2,1 km/h (1 Bft)
29.04.2011 22:20 14,7 C 16,8 C 13,9 C 14,1 C 13,0 C 0,0 C 61 % 64 % 0 % 1012,2 hPa 0,0 l/m 3,7 km/h (1 Bft) O-NO 67 0 min 0,0 UV-I 7,3 C 13,0 C 8,4 km/h (2 Bft)
29.04.2011 22:25 14,7 C 16,8 C 14,0 C 14,2 C 13,3 C 0,0 C 61 % 64 % 0 % 1012,2 hPa 0,0 l/m 5,1 km/h (1 Bft) O-NO 67 0 min 0,0 UV-I 7,3 C 13,3 C 6,1 km/h (2 Bft)
29.04.2011 22:30 14,7 C 16,7 C 14,0 C 14,2 C 13,3 C 0,0 C 61 % 64 % 0 % 1012,2 hPa 0,0 l/m 4,8 km/h (1 Bft) NO 45 0 min 0,0 UV-I 7,3 C 13,3 C 1,6 km/h (1 Bft)
29.04.2011 22:35 14,4 C 16,7 C 13,7 C 13,9 C 13,0 C 0,0 C 62 % 65 % 0 % 1012,3 hPa 0,0 l/m 3,2 km/h (1 Bft) O-NO 67 0 min 0,0 UV-I 7,2 C 13,0 C 6,0 km/h (2 Bft)
29.04.2011 22:40 14,2 C 16,7 C 13,7 C 13,8 C 12,9 C 0,0 C 63 % 66 % 0 % 1012,3 hPa 0,0 l/m 3,2 km/h (1 Bft) O-NO 67 0 min 0,0 UV-I 7,3 C 12,9 C 5,1 km/h (1 Bft)
29.04.2011 22:45 14,0 C 16,7 C 13,5 C 13,6 C 12,7 C 0,0 C 63 % 67 % 0 % 1012,3 hPa 0,0 l/m 3,9 km/h (1 Bft) NO 45 0 min 0,0 UV-I 7,1 C 12,7 C 5,1 km/h (1 Bft)
29.04.2011 22:50 14,1 C 16,8 C 13,3 C 13,6 C 12,7 C 0,0 C 64 % 67 % 0 % 1012,3 hPa 0,0 l/m 3,9 km/h (1 Bft) NO 45 0 min 0,0 UV-I 7,4 C 12,7 C 2,7 km/h (1 Bft)
29.04.2011 22:55 13,9 C 16,8 C 13,1 C 13,4 C 12,4 C 0,0 C 64 % 67 % 0 % 1012,2 hPa 0,0 l/m 2,3 km/h (1 Bft) NO 45 0 min 0,0 UV-I 7,2 C 12,4 C 0,0 km/h (0 Bft)
29.04.2011 23:00 13,8 C 16,8 C 13,0 C 13,3 C 12,2 C 0,0 C 65 % 68 % 0 % 1012,2 hPa 0,0 l/m 1,0 km/h (0 Bft) O-NO 67 0 min 0,0 UV-I 7,3 C 12,2 C 1,8 km/h (1 Bft)
29.04.2011 23:10 13,6 C 16,7 C 12,9 C 13,0 C 11,7 C 0,0 C 66 % 69 % 0 % 1012,2 hPa 0,0 l/m 1,6 km/h (1 Bft) N 0 0 min 0,0 UV-I 7,4 C 11,7 C 3,1 km/h (1 Bft)
29.04.2011 23:15 13,8 C 16,7 C 13,1 C 13,1 C 11,8 C 0,0 C 65 % 69 % 0 % 1012,0 hPa 0,0 l/m 3,1 km/h (1 Bft) NO 45 0 min 0,0 UV-I 7,3 C 11,8 C 4,5 km/h (1 Bft)
29.04.2011 23:20 13,9 C 16,7 C 13,1 C 13,3 C 12,0 C 0,0 C 65 % 68 % 0 % 1012,0 hPa 0,0 l/m 2,9 km/h (1 Bft) O-NO 67 0 min 0,0 UV-I 7,4 C 12,0 C 0,0 km/h (0 Bft)
29.04.2011 23:25 13,7 C 16,7 C 12,7 C 13,0 C 11,7 C 0,0 C 66 % 69 % 0 % 1012,0 hPa 0,0 l/m 1,6 km/h (1 Bft) O-NO 67 0 min 0,0 UV-I 7,5 C 11,7 C 1,9 km/h (1 Bft)
29.04.2011 23:30 13,6 C 16,7 C 12,6 C 12,9 C 11,6 C 0,0 C 66 % 70 % 0 % 1012,0 hPa 0,0 l/m 1,0 km/h (0 Bft) NO 45 0 min 0,0 UV-I 7,4 C 11,6 C 2,6 km/h (1 Bft)
29.04.2011 23:35 13,5 C 16,6 C 12,5 C 12,8 C 11,4 C 0,0 C 67 % 71 % 0 % 1012,1 hPa 0,0 l/m 1,1 km/h (1 Bft) O-NO 67 0 min 0,0 UV-I 7,5 C 11,4 C 2,6 km/h (1 Bft)
29.04.2011 23:40 13,5 C 16,6 C 12,6 C 12,8 C 11,4 C 0,0 C 67 % 71 % 0 % 1012,1 hPa 0,0 l/m 1,8 km/h (1 Bft) N-NO 22 0 min 0,0 UV-I 7,5 C 11,4 C 3,7 km/h (1 Bft)
29.04.2011 23:45 13,4 C 16,6 C 12,7 C 12,8 C 11,5 C 0,0 C 67 % 71 % 0 % 1012,1 hPa 0,0 l/m 2,6 km/h (1 Bft) N-NO 22 0 min 0,0 UV-I 7,4 C 11,5 C 3,1 km/h (1 Bft)
29.04.2011 23:50 13,5 C 16,6 C 12,7 C 12,8 C 11,5 C 0,0 C 67 % 71 % 0 % 1012,1 hPa 0,0 l/m 2,7 km/h (1 Bft) O-NO 67 0 min 0,0 UV-I 7,5 C 11,5 C 4,0 km/h (1 Bft)
29.04.2011 23:55 13,3 C 16,6 C 12,4 C 12,7 C 11,5 C 0,0 C 67 % 71 % 0 % 1011,8 hPa 0,0 l/m 2,3 km/h (1 Bft) NO 45 0 min 0,0 UV-I 7,3 C 11,5 C 4,0 km/h (1 Bft)
_ Min-Zeit 05:50 09:25 04:55 05:50 05:40 00:00 14:50 14:50 00:00 17:55 - 00:00 - - - 00:00 17:10 05:40 00:00
Minimum _ 10,1 C 14,9 C 9,1 C 9,4 C 8,0 C 0,0 C 40 % 42 % 0 % 1010,1 hPa - 0,0 km/h (0 Bft) - - - 0,0 UV-I 6,1 C 8,0 C 0,0 km/h (0 Bft)
_ Max-Zeit 14:15 18:30 14:10 14:15 14:15 09:15 03:45 05:55 08:45 00:35 00:00 14:55 - - 09:10 12:45 12:00 14:15 14:55
Maximum _ 22,0 C 17,0 C 22,3 C 24,7 C 24,7 C 5,5 C 84 % 89 % 100 % 1013,7 hPa 0,0 l/m 21,7 km/h
O-NO (4 Bft)
- - 10 min 2,7 UV-I 10,9 C 24,7 C 39,7 km/h
O-NO (6 Bft)
Durchschnitt _ 15,5 C 16,0 C 13,7 C 15,9 C 15,2 C 0,8 C 65 % 72 % 20 % 1011,8 hPa #0,0 l/m 4,0 km/h (1 Bft) O-NO - #55 min. 1,0 UV-I 8,5 C 15,2 C 5,1 km/h (1 Bft)
2013 www.wetterstation-wechselburg.de